Time,TemperatureF,DewpointF,PressureIn,WindDirection,WindDirectionDegrees,WindSpeedMPH,WindSpeedGustMPH,Humidity,HourlyPrecipIn,Conditions,Clouds,dailyrainin,SoftwareType,DateUTC
2013-10-24 00:21:00,60.0,21.0,-100.00,ESE,114,0.0,4.0,22,0.00,,,0.00,,2013-10-24 07:21:00,
2013-10-24 00:32:00,60.0,21.0,-100.00,ESE,114,0.0,4.0,22,0.00,,,0.00,,2013-10-24 07:32:00,
2013-10-24 00:42:00,60.0,21.0,-100.00,ESE,114,0.0,4.0,22,0.00,,,0.00,,2013-10-24 07:42:00,
2013-10-24 00:52:00,60.0,21.0,-100.00,ESE,114,0.0,4.0,22,0.00,,,0.00,,2013-10-24 07:52:00,
2013-10-24 01:21:00,56.0,23.0,-100.00,East,81,1.0,4.0,27,0.00,,,0.00,,2013-10-24 08:21:00,
2013-10-24 01:32:00,56.0,23.0,-100.00,East,81,1.0,4.0,27,0.00,,,0.00,,2013-10-24 08:32:00,
2013-10-24 01:42:00,56.0,23.0,-100.00,East,81,1.0,4.0,27,0.00,,,0.00,,2013-10-24 08:42:00,
2013-10-24 01:53:00,56.0,23.0,-100.00,East,81,1.0,4.0,27,0.00,,,0.00,,2013-10-24 08:53:00,
2013-10-24 02:22:00,58.0,24.0,-100.00,SE,126,2.0,3.0,27,0.00,,,0.00,,2013-10-24 09:22:00,
2013-10-24 02:33:00,58.0,24.0,-100.00,SE,126,2.0,3.0,27,0.00,,,0.00,,2013-10-24 09:33:00,
2013-10-24 02:43:00,58.0,24.0,-100.00,SE,126,2.0,3.0,27,0.00,,,0.00,,2013-10-24 09:43:00,
2013-10-24 02:53:00,58.0,24.0,-100.00,SE,126,2.0,3.0,27,0.00,,,0.00,,2013-10-24 09:53:00,
2013-10-24 03:23:00,56.0,23.0,-100.00,East,83,1.0,4.0,27,0.00,,,0.00,,2013-10-24 10:23:00,
2013-10-24 03:33:00,56.0,23.0,-100.00,East,83,1.0,4.0,27,0.00,,,0.00,,2013-10-24 10:33:00,
2013-10-24 03:42:00,56.0,23.0,-100.00,East,83,1.0,4.0,27,0.00,,,0.00,,2013-10-24 10:42:00,
2013-10-24 03:52:00,56.0,23.0,-100.00,East,83,1.0,4.0,27,0.00,,,0.00,,2013-10-24 10:52:00,
2013-10-24 04:22:00,54.0,25.0,-100.00,NE,39,4.0,5.0,32,0.00,,,0.00,,2013-10-24 11:22:00,
2013-10-24 04:33:00,54.0,25.0,-100.00,NE,39,4.0,5.0,32,0.00,,,0.00,,2013-10-24 11:33:00,
2013-10-24 04:42:00,54.0,25.0,-100.00,NE,39,4.0,5.0,32,0.00,,,0.00,,2013-10-24 11:42:00,
2013-10-24 04:52:00,54.0,25.0,-100.00,NE,39,4.0,5.0,32,0.00,,,0.00,,2013-10-24 11:52:00,
2013-10-24 05:22:00,56.0,27.0,-100.00,WSW,253,3.0,5.0,32,0.00,,,0.00,,2013-10-24 12:22:00,
2013-10-24 05:32:00,56.0,27.0,-100.00,WSW,253,3.0,5.0,32,0.00,,,0.00,,2013-10-24 12:32:00,
2013-10-24 05:42:00,56.0,27.0,-100.00,WSW,253,3.0,5.0,32,0.00,,,0.00,,2013-10-24 12:42:00,
2013-10-24 05:52:00,56.0,27.0,-100.00,WSW,253,3.0,5.0,32,0.00,,,0.00,,2013-10-24 12:52:00,
2013-10-24 06:22:00,56.0,22.0,-100.00,NNE,13,3.0,5.0,26,0.00,,,0.00,,2013-10-24 13:22:00,
2013-10-24 06:32:00,56.0,22.0,-100.00,NNE,13,3.0,5.0,26,0.00,,,0.00,,2013-10-24 13:32:00,
2013-10-24 06:42:00,56.0,22.0,-100.00,NNE,13,3.0,5.0,26,0.00,,,0.00,,2013-10-24 13:42:00,
2013-10-24 06:52:00,56.0,22.0,-100.00,NNE,13,3.0,5.0,26,0.00,,,0.00,,2013-10-24 13:52:00,
2013-10-24 07:21:00,58.0,29.0,-100.00,SSW,200,3.0,5.0,33,0.00,,,0.00,,2013-10-24 14:21:00,
2013-10-24 07:32:00,58.0,29.0,-100.00,SSW,200,3.0,5.0,33,0.00,,,0.00,,2013-10-24 14:32:00,
2013-10-24 07:42:00,58.0,29.0,-100.00,SSW,200,3.0,5.0,33,0.00,,,0.00,,2013-10-24 14:42:00,
2013-10-24 07:51:00,58.0,29.0,-100.00,SSW,200,3.0,5.0,33,0.00,,,0.00,,2013-10-24 14:51:00,
2013-10-24 08:21:00,58.0,28.0,-100.00,NNE,31,3.0,6.0,31,0.00,,,0.00,,2013-10-24 15:21:00,
2013-10-24 08:33:00,58.0,28.0,-100.00,NNE,31,3.0,6.0,31,0.00,,,0.00,,2013-10-24 15:33:00,
2013-10-24 08:43:00,58.0,28.0,-100.00,NNE,31,3.0,6.0,31,0.00,,,0.00,,2013-10-24 15:43:00,
2013-10-24 08:53:00,58.0,28.0,-100.00,NNE,31,3.0,6.0,31,0.00,,,0.00,,2013-10-24 15:53:00,
2013-10-24 09:23:00,61.0,33.0,-100.00,East,82,1.0,4.0,35,0.00,,,0.00,,2013-10-24 16:23:00,
2013-10-24 09:32:00,61.0,33.0,-100.00,East,82,1.0,4.0,35,0.00,,,0.00,,2013-10-24 16:32:00,
2013-10-24 09:42:00,61.0,33.0,-100.00,East,82,1.0,4.0,35,0.00,,,0.00,,2013-10-24 16:42:00,
2013-10-24 09:53:00,61.0,33.0,-100.00,East,82,1.0,4.0,35,0.00,,,0.00,,2013-10-24 16:53:00,
2013-10-24 10:52:00,75.0,35.0,-100.00,WSW,251,2.0,5.0,23,0.00,,,0.00,,2013-10-24 17:52:00,
2013-10-24 11:22:00,77.0,33.0,-100.00,WSW,240,7.0,10.0,20,0.00,,,-99.99,,2013-10-24 18:22:00,
2013-10-24 11:32:00,77.0,33.0,-100.00,WSW,240,7.0,10.0,20,0.00,,,-99.99,,2013-10-24 18:32:00,
2013-10-24 11:42:00,77.0,33.0,-100.00,WSW,240,7.0,10.0,20,0.00,,,-99.99,,2013-10-24 18:42:00,
2013-10-24 11:53:00,77.0,33.0,-100.00,WSW,240,7.0,10.0,20,0.00,,,-99.99,,2013-10-24 18:53:00,
2013-10-24 12:22:00,80.0,31.0,-100.00,SW,219,6.0,11.0,17,0.00,,,0.00,,2013-10-24 19:22:00,
2013-10-24 12:32:00,80.0,31.0,-100.00,SW,219,6.0,11.0,17,0.00,,,0.00,,2013-10-24 19:32:00,
2013-10-24 12:43:00,80.0,31.0,-100.00,SW,219,6.0,11.0,17,0.00,,,0.00,,2013-10-24 19:43:00,
2013-10-24 12:53:00,80.0,31.0,-100.00,SW,219,6.0,11.0,17,0.00,,,0.00,,2013-10-24 19:53:00,
2013-10-24 13:22:00,82.0,24.0,-100.00,South,172,7.0,15.0,12,0.00,,,0.00,,2013-10-24 20:22:00,
2013-10-24 13:32:00,82.0,24.0,-100.00,South,172,7.0,15.0,12,0.00,,,0.00,,2013-10-24 20:32:00,
2013-10-24 13:42:00,82.0,24.0,-100.00,South,172,7.0,15.0,12,0.00,,,0.00,,2013-10-24 20:42:00,
2013-10-24 13:53:00,82.0,24.0,-100.00,South,172,7.0,15.0,12,0.00,,,0.00,,2013-10-24 20:53:00,
2013-10-24 13:54:00,82.0,26.0,-100.00,SSW,210,8.0,15.0,13,0.00,,,0.00,,2013-10-24 20:54:00,
2013-10-24 14:22:00,82.0,26.0,-100.00,SSW,210,8.0,15.0,13,0.00,,,0.00,,2013-10-24 21:22:00,
2013-10-24 14:34:00,82.0,26.0,-100.00,SSW,210,8.0,15.0,13,0.00,,,0.00,,2013-10-24 21:34:00,
2013-10-24 14:43:00,82.0,26.0,-100.00,SSW,210,8.0,15.0,13,0.00,,,0.00,,2013-10-24 21:43:00,
2013-10-24 14:54:00,82.0,24.0,-100.00,SW,215,10.0,17.0,12,0.00,,,0.00,,2013-10-24 21:54:00,
2013-10-24 15:24:00,82.0,24.0,-100.00,SW,215,10.0,17.0,12,0.00,,,0.00,,2013-10-24 22:24:00,
2013-10-24 15:34:00,82.0,24.0,-100.00,SW,215,10.0,17.0,12,0.00,,,0.00,,2013-10-24 22:34:00,
2013-10-24 15:43:00,82.0,24.0,-100.00,SW,215,10.0,17.0,12,0.00,,,0.00,,2013-10-24 22:43:00,
2013-10-24 16:22:00,80.0,21.0,-100.00,SSW,206,8.0,15.0,11,0.00,,,0.00,,2013-10-24 23:22:00,
2013-10-24 16:34:00,80.0,21.0,-100.00,SSW,206,8.0,15.0,11,0.00,,,0.00,,2013-10-24 23:34:00,
2013-10-24 16:43:00,80.0,21.0,-100.00,SSW,206,8.0,15.0,11,0.00,,,0.00,,2013-10-24 23:43:00,
2013-10-24 16:53:00,80.0,21.0,-100.00,SSW,206,8.0,15.0,11,0.00,,,0.00,,2013-10-24 23:53:00,
2013-10-24 17:21:00,78.0,15.0,-100.00,SSW,200,7.0,16.0,9,0.00,,,0.00,,2013-10-25 00:21:00,
2013-10-24 17:33:00,78.0,15.0,-100.00,SSW,200,7.0,16.0,9,0.00,,,0.00,,2013-10-25 00:33:00,
2013-10-24 17:42:00,78.0,15.0,-100.00,SSW,200,7.0,16.0,9,0.00,,,0.00,,2013-10-25 00:42:00,
2013-10-24 17:52:00,78.0,15.0,-100.00,SSW,200,7.0,16.0,9,0.00,,,0.00,,2013-10-25 00:52:00,
2013-10-24 18:21:00,71.0,18.0,-100.00,SSW,207,3.0,12.0,13,0.00,,,0.00,,2013-10-25 01:21:00,
2013-10-24 18:32:00,71.0,18.0,-100.00,SSW,207,3.0,12.0,13,0.00,,,0.00,,2013-10-25 01:32:00,
2013-10-24 18:42:00,71.0,18.0,-100.00,SSW,207,3.0,12.0,13,0.00,,,0.00,,2013-10-25 01:42:00,
2013-10-24 18:53:00,71.0,18.0,-100.00,SSW,207,3.0,12.0,13,0.00,,,0.00,,2013-10-25 01:53:00,
2013-10-24 19:22:00,65.0,19.0,-100.00,NNW,345,3.0,4.0,17,0.00,,,0.00,,2013-10-25 02:22:00,
2013-10-24 19:32:00,65.0,19.0,-100.00,NNW,345,3.0,4.0,17,0.00,,,0.00,,2013-10-25 02:32:00,
2013-10-24 19:42:00,65.0,19.0,-100.00,NNW,345,3.0,4.0,17,0.00,,,0.00,,2013-10-25 02:42:00,
2013-10-24 19:52:00,65.0,19.0,-100.00,NNW,345,3.0,4.0,17,0.00,,,0.00,,2013-10-25 02:52:00,
2013-10-24 19:54:00,62.0,19.0,-100.00,North,4,3.0,4.0,19,0.00,,,0.00,,2013-10-25 02:54:00,
2013-10-24 20:23:00,62.0,19.0,-100.00,North,4,3.0,4.0,19,0.00,,,0.00,,2013-10-25 03:23:00,
2013-10-24 20:34:00,62.0,19.0,-100.00,North,4,3.0,4.0,19,0.00,,,0.00,,2013-10-25 03:34:00,
2013-10-24 20:44:00,62.0,19.0,-100.00,North,4,3.0,4.0,19,0.00,,,0.00,,2013-10-25 03:44:00,
2013-10-24 20:54:00,59.0,19.0,-100.00,North,5,0.0,4.0,21,0.00,,,0.00,,2013-10-25 03:54:00,
2013-10-24 21:24:00,59.0,19.0,-100.00,North,5,0.0,4.0,21,0.00,,,0.00,,2013-10-25 04:24:00,
2013-10-24 21:34:00,59.0,19.0,-100.00,North,5,0.0,4.0,21,0.00,,,0.00,,2013-10-25 04:34:00,
2013-10-24 21:44:00,59.0,19.0,-100.00,North,5,0.0,4.0,21,0.00,,,0.00,,2013-10-25 04:44:00,
2013-10-24 22:21:00,55.0,18.0,-100.00,ENE,60,3.0,6.0,23,0.00,,,0.00,,2013-10-25 05:21:00,
2013-10-24 22:32:00,55.0,18.0,-100.00,ENE,60,3.0,6.0,23,0.00,,,0.00,,2013-10-25 05:32:00,
2013-10-24 22:42:00,55.0,18.0,-100.00,ENE,60,3.0,6.0,23,0.00,,,0.00,,2013-10-25 05:42:00,
2013-10-24 22:51:00,55.0,18.0,-100.00,ENE,60,3.0,6.0,23,0.00,,,0.00,,2013-10-25 05:51:00,
2013-10-24 23:21:00,54.0,19.0,-100.00,ENE,65,3.0,6.0,25,0.00,,,0.00,,2013-10-25 06:21:00,
2013-10-24 23:31:00,54.0,19.0,-100.00,ENE,65,3.0,6.0,25,0.00,,,0.00,,2013-10-25 06:31:00,
2013-10-24 23:41:00,54.0,19.0,-100.00,ENE,65,3.0,6.0,25,0.00,,,0.00,,2013-10-25 06:41:00,
2013-10-24 23:51:00,54.0,19.0,-100.00,ENE,65,3.0,6.0,25,0.00,,,0.00,,2013-10-25 06:51:00,